Latrobe, PA

1:18 AM EDT on September 18, 2019 (GMT -0400)
Arnold Palmer Regional

Weather History for KLBE - May, 2019

Change the Weather History Date:

Sunday, May 26, 2019

  Actual Average Record
Temperature  
Mean Temperature 70 °F -  
Max Temperature 78 °F 70 °F 87 °F (2012)
Min Temperature 62 °F 50 °F 37 °F (2013)
Cooling Degree Days 5    
Growing Degree Days 20 (Base 50)    
Moisture  
Dew Point 65 °F    
Average Humidity 91    
Maximum Humidity 100    
Minimum Humidity 54    
Precipitation  
Precipitation 0.00 in - - ()
Sea Level Pressure  
Sea Level Pressure 30.04 in    
Wind  
Wind Speed 6 mph (SW)    
Max Wind Speed 17 mph    
Max Gust Speed -    
Visibility 10 miles    
Events Rain    
Averages and records for this station are not official NWS values.
T = Trace of Precipitation, MM = Missing Value Source: NWS Daily Summary

Daily Weather History Graph

Daily Weather History Graph

Search for Another Location

Airport or City:

Astronomy

May. 26, 2019 Rise Set
Actual Time 5:53 AM EDT 8:36 PM EDT
Civil Twilight 5:21 AM EDT 9:08 PM EDT
Nautical Twilight 4:41 AM EDT 9:48 PM EDT
Astronomical Twilight 3:56 AM EDT 10:33 PM EDT
Moon 2:07 AM EDT (5/26) 12:49 PM EDT (5/26)
Length of Visible Light 15h 46m
Length of Day
14h 43m
Waning Gibbous, 50% of the Moon is Illuminated
May 26
Waning Gibbous
May 26
Last Quarter
Jun 3
New
Jun 10
First Quarter
Jun 17
Full

Hourly Weather History & Observations

Time (EDT) Temp. Dew Point Humidity Pressure Visibility Wind Dir Wind Speed Gust Speed Precip Events Conditions
12:15 AM 64.4 °F 64.4 °F 100% 30.04 in 10.0 mi SSW 6.9 mph - N/A   Clear
12:35 AM 64.4 °F 64.4 °F 100% 30.04 in 10.0 mi SSW 5.8 mph - N/A   Clear
12:55 AM 64.4 °F 64.4 °F 100% 30.04 in 10.0 mi SSW 6.9 mph - N/A   Clear
1:15 AM 64.4 °F 64.4 °F 100% 30.05 in 10.0 mi SW 5.8 mph - N/A   Clear
1:35 AM 66.2 °F 66.2 °F 100% 30.04 in 10.0 mi SSW 4.6 mph - N/A   Clear
1:55 AM 64.4 °F 64.4 °F 100% 30.04 in 10.0 mi South 6.9 mph - N/A   Clear
2:15 AM 64.4 °F 64.4 °F 100% 30.04 in 10.0 mi South 6.9 mph - N/A   Clear
2:35 AM - - N/A% 30.05 in 10.0 mi SSW 3.5 mph - N/A   Clear
2:55 AM 64.4 °F 64.4 °F 100% 30.05 in 10.0 mi Calm Calm - N/A   Clear
3:15 AM 64.4 °F 64.4 °F 100% 30.04 in 10.0 mi Calm Calm - N/A   Clear
3:35 AM 64.4 °F 64.4 °F 100% 30.04 in 10.0 mi SSW 3.5 mph - N/A   Clear
3:55 AM 64.4 °F 64.4 °F 100% 30.04 in 10.0 mi South 5.8 mph - N/A   Clear
4:15 AM 64.4 °F 64.4 °F 100% 30.05 in 10.0 mi SSW 3.5 mph - N/A   Clear
4:35 AM 62.6 °F 62.6 °F 100% 30.05 in 10.0 mi South 4.6 mph - N/A   Clear
4:55 AM 64.4 °F 64.4 °F 100% 30.05 in 10.0 mi Calm Calm - N/A   Clear
5:15 AM 62.6 °F 62.6 °F 100% 30.05 in 10.0 mi Calm Calm - N/A   Clear
5:35 AM 62.6 °F 62.6 °F 100% 30.04 in 10.0 mi South 3.5 mph - N/A   Clear
5:55 AM 62.6 °F 62.6 °F 100% 30.05 in 10.0 mi SW 4.6 mph - N/A   Partly Cloudy
6:50 AM 64.4 °F 64.4 °F 100% 30.05 in 10.0 mi SW 6.9 mph - N/A   Mostly Cloudy
7:50 AM 68.0 °F 68.0 °F 100% 30.06 in 10.0 mi SSW 6.9 mph - N/A   Mostly Cloudy
8:50 AM 69.8 °F 69.8 °F 100% 30.07 in 10.0 mi SW 11.5 mph - N/A   Scattered Clouds
9:50 AM 75.2 °F 69.8 °F 83% 30.07 in 10.0 mi SSW 17.3 mph - N/A   Scattered Clouds
10:50 AM 75.2 °F 69.8 °F 83% 30.05 in 10.0 mi SSW 13.8 mph - N/A   Mostly Cloudy
11:00 AM 73.4 °F 71.6 °F 94% 30.06 in 4.0 mi WSW 13.8 mph - N/A Rain Light Rain
11:50 AM 69.8 °F 64.4 °F 83% 30.04 in 10.0 mi West 5.8 mph - N/A   Mostly Cloudy
12:50 PM 75.2 °F 69.8 °F 83% 30.06 in 10.0 mi West 6.9 mph - N/A   Scattered Clouds
1:50 PM 73.4 °F 64.4 °F 73% 30.05 in 10.0 mi West 11.5 mph - N/A   Mostly Cloudy
2:45 PM 77.0 °F 66.2 °F 69% 30.03 in 10.0 mi WSW 9.2 mph - N/A   Scattered Clouds
3:45 PM 77.0 °F 64.4 °F 65% 30.02 in 10.0 mi SW 11.5 mph - N/A   Mostly Cloudy
4:45 PM 78.8 °F 60.8 °F 54% 30.00 in 10.0 mi SW 9.2 mph - N/A   Overcast
5:57 PM 77.0 °F 64.4 °F 65% 29.99 in 10.0 mi West 6.9 mph - N/A   Scattered Clouds
6:50 PM 77.0 °F 64.4 °F 65% 29.99 in 10.0 mi West 8.1 mph - N/A   Scattered Clouds
7:50 PM 75.2 °F 64.4 °F 69% 29.98 in 10.0 mi North 9.2 mph - N/A   Scattered Clouds
8:45 PM 71.6 °F 60.8 °F 69% 30.00 in 10.0 mi North 15.0 mph - N/A   Scattered Clouds
9:45 PM 69.8 °F 62.6 °F 78% 30.03 in 10.0 mi NNE 6.9 mph - N/A   Mostly Cloudy
10:15 PM 66.2 °F 66.2 °F 100% 30.03 in 10.0 mi North 4.6 mph - N/A   Overcast
10:35 PM 66.2 °F 66.2 °F 100% 30.02 in 10.0 mi Calm Calm - N/A   Overcast
10:55 PM 66.2 °F 66.2 °F 100% 30.02 in 10.0 mi Calm Calm - N/A   Mostly Cloudy
11:15 PM 66.2 °F 66.2 °F 100% 30.01 in 10.0 mi Calm Calm - N/A   Scattered Clouds
11:35 PM - - N/A% 30.01 in 10.0 mi SSE 3.5 mph - N/A   Scattered Clouds
11:55 PM 64.4 °F 64.4 °F 100% 30.02 in 10.0 mi Calm Calm - N/A   Mostly Cloudy